Home > Weather > Nordhorn > Past weeks

Flag for Germany Weather for the Past 2 Weeks in Nordhorn, Lower Saxony, Germany

Now
61 °F

Overcast.


Feels Like: 61 °F
Forecast: 44 / 56 °F
Wind: 2 mph from Southwest

Location: Twenthe

Current Time: May 2, 2016 at 10:12:40 PM

Latest Report: May 2, 2016 at 8:00 PM


Visibility: 19 mi

Pressure: 30.09 "Hg

Humidity: 53%

Dew Point: 44 °F

Location of NordhornLocation

Historic Weather in Nordhorn — Graph

°F

Nordhorn Temperature Yesterday

Maximum temperature yesterday: 57 °F (at 6:00 PM)
Minimum temperature yesterday: 35 °F (at 4:00 AM)
Average temperature yesterday: 46 °F

High & Low Weather Summary for the Past Weeks

 TemperatureHumidityPressure
High67 °F (May 2, 4:00 PM)99% (May 2, 6:00 AM)30.45 "Hg (May 2, 6:00 AM)
Low30 °F (Apr 25, 2:00 AM)37% (Apr 19, 5:00 PM)29.41 "Hg (Apr 26, 7:00 AM)
Average45 °F74%30.01 "Hg
* Reported Apr 17 8:00 PM — May 2 8:00 PM, Nordhorn, Weather by CustomWeather, © 2016

Note: Actual official high and low records may vary slightly from our data, if they occured in-between our weather recording intervals... More about our weather records

Advertising

Nordhorn Weather History for the Previous 24 Hours

Scroll right to see more
 ConditionsComfort  
Time TempWeatherWind HumidityBarometerVisibility
8:00 PM
Mon, May 2
61 °FOvercast.2 mph53%30.09 "Hg19 mi
7:00 PM63 °FOvercast.3 mph52%30.11 "Hg14 mi
6:00 PM64 °FOvercast.5 mph51%30.12 "Hg16 mi
5:00 PM65 °FOvercast.6 mph46%30.14 "Hg14 mi
4:00 PM67 °FOvercast.5 mph43%30.16 "Hg16 mi
3:00 PM66 °FOvercast.6 mph45%30.18 "Hg22 mi
2:00 PM65 °FOvercast.5 mph47%30.20 "Hg16 mi
12:00 PM61 °FScattered clouds.3 mph57%30.25 "Hg17 mi
11:00 AM59 °FOvercast.3 mph61%30.26 "Hg15 mi
10:00 AM56 °FOvercast.2 mph64%30.27 "Hg13 mi
9:00 AM51 °FOvercast.1 mph76%30.29 "Hg16 mi
8:00 AM43 °FScattered clouds.No wind96%30.29 "Hg11 mi
6:00 AM35 °FScattered clouds.1 mph99%30.31 "Hg1 mi
3:00 AM37 °FClear.1 mph98%30.33 "Hg1 mi
2:00 AM39 °FClear.No wind98%30.33 "Hg6 mi
1:00 AM38 °FClear.No wind98%30.34 "Hg11 mi
12:00 AM41 °FOvercast.1 mph93%30.35 "Hg22 mi
11:00 PM
Sun, May 1
43 °FOvercast.1 mph86%30.35 "Hg28 mi
10:00 PM45 °FOvercast.1 mph89%30.36 "Hg28 mi
Weather by CustomWeather, © 2016

See weather overviewHow to use our weather pages